www.pogodaiklimat.ru

Погода и климат >> Архив погоды >> Португалия >> Порту-Санту


ПОГОДА на Порту-Санту

  • Прогноз погоды на Порту-Санту
  • Монитор погоды на Порту-Санту

АРХИВ ПОГОДЫ на Порту-Санту

Время (UTC), дата Ветер
(напр.,м/с)
 
Видим.   Явления Облачность Т
(С)
Тd
(С)
f
(%)
Тe
(С)
Тes
(С)
Комфортность P
(гПа)
Po
(гПа)
Тmin
(С)
Tmax
(С)
R
(мм)
R24
(мм)
S
(см)
09 20.05 С 5-8
{8}
20 км 9/9 420 м
[Cu Sc]
+18.7 +14.7 78 +19 +20 1020.1 1010.5
12 20.05 С 10-16
{17}
20 км 4/4 450 м
[Cu Sc]
+20.3 +14.8 71 +22 +23 комфорт 1020.6 1010.9
15 20.05 С 6-10
{10}
20 км 3/3 450 м
[Cu Sc]
+21.0 +14.9 68 +24 +29 комфорт 1020.1 1010.5
18 20.05 С 12 20 км 4/4 450 м
[Cu Sc]
+19.4 +14.6 74 +20 +20 1020.0 1010.3 +21.6
21 20.05 С 4-6
{7}
20 км 6/6 400 м
[Cu Sc]
+18.0 +15.1 83 +18 +18 1021.0 1011.3
00 21.05 СВ 2 15 км 6/6 400 м
[Cu Sc]
+17.6 +14.6 83 +18 +18 1021.5 1011.7
03 21.05 С 3
{5}
15 км 5/5 450 м
[Cu Sc]
+17.1 +14.3 84 +17 +17 1020.0 1010.2
06 21.05 С 3
{5}
15 км 6/6 400 м
[Cu Sc]
+17.2 +14.8 86 +17 +17 1019.5 1009.8 +16.5
09 21.05 С 4
{7}
20 км 8/5 400 м
[Cu Sc Ci sp]
+18.6 +14.8 79 +19 +21 1020.5 1010.8
12 21.05 С 6
{14}
20 км 8/6 450 м
[Cu Sc Ac trans Ci sp]
+20.8 +14.2 66 +23 +26 комфорт 1020.9 1011.3
15 21.05 С 3-6
{7}
20 км 9/9 450 м
[Cu Sc Ac trans Ci fib]
+19.9 +14.6 72 +22 +24 комфорт 1020.5 1010.8
18 21.05 С 5 20 км 9/9 450 м
[Cu Sc Ci fib]
+19.4 +13.9 70 +21 +21 комфорт 1020.4 1010.7 +21.1
21 21.05 С 4-7
{7}
20 км 6/4 450 м
[Cu Sc Ci sp]
+17.6 +13.6 77 +17 +17 1021.0 1011.2
00 22.05 С 3
{6}
н/о н/о +17.3 +13.7 79 +17 +17 1021.2 1011.5
03 22.05 С 3
{5}
20 км 5/5 450 м
[Cu Sc]
+17.1 +13.2 78 +17 +17 1020.4 1010.6
06 22.05 С 3-5
{6}
20 км 4/4 450 м
[Cu Sc]
+16.9 +12.5 75 +17 +17 1020.1 1010.3 +16.8
09 22.05 С 5
{8}
20 км 4/4 450 м
[Cu Sc Ac trans]
+20.2 +13.2 64 +22 +24 комфорт 1021.3 1011.6
12 22.05 С 5
{8}
20 км 4/4 450 м
[Cu Sc Ac trans]
+21.6 +13.3 59 +24 +31 комфорт 1022.0 1012.4
15 22.05 С 5-7
{8}
20 км 3/3 450 м
[Cu Sc]
+21.6 +14.5 64 +25 +31 комфорт 1021.5 1011.9
18 22.05 С 5-9
{9}
20 км 3/3 450 м
[Cu Sc]
+20.0 +14.5 71 +22 +23 комфорт 1021.2 1011.5 +22.2
21 22.05 С 5-8
{8}
20 км 4/4 450 м
[Cu Sc]
+18.3 +14.7 80 +18 +18 1022.3 1012.5
00 23.05 С 4
{7}
20 км 4/4 450 м
[Cu Sc]
+17.6 +15.0 85 +17 +17 1022.8 1013.1
03 23.05 С 4
{7}
20 км 4/4 450 м
[Cu Sc]
+17.6 +14.8 84 +17 +17 1021.6 1011.8
06 23.05 С 4
{7}
20 км 5/5 450 м
[Cu Sc]
+17.5 +13.9 79 +17 +17 1021.3 1011.6 +17.2
09 23.05 С 6
{9}
20 км 6/6 450 м
[Cu Sc]
+19.9 +14.3 70 +22 +23 комфорт 1022.8 1013.1
12 23.05 С 6
{10}
20 км 6/6 450 м
[Cu Sc]
+21.1 +15.1 69 +24 +27 комфорт 1023.2 1013.6
15 23.05 С 6
{9}
20 км 5/5 450 м
[Cu Sc]
+21.8 +15.9 69 +25 +29 комфорт 1022.6 1012.9
18 23.05 С 10
{17}
20 км 6/6 360 м
[Cu Sc]
+19.9 +16.7 82 +22 +22 комфорт 1021.9 1012.2 +22.4
21 23.05 С 6-10
{10}
15 км 9/9 330 м
[Cu Sc]
+18.8 +16.0 84 +19 +19 1022.5 1012.8
00 24.05 С 10-16
{17}
20 км 6/6 450 м
[Cu Sc]
+18.4 +13.7 74 +18 +18 1023.5 1013.7
03 24.05 С 4
{9}
20 км 6/6 450 м
[Cu Sc]
+18.0 +13.1 73 +18 +18 1022.3 1012.6
06 24.05 СВ 5-9
{10}
20 км 8/8 450 м
[Cu Sc]
+17.6 +12.8 73 +17 +17 1022.2 1012.5 +17.6
09 24.05 С 6
{10}
20 км 5/5 450 м
[Cu Sc]
+20.2 +14.8 71 +22 +24 комфорт 1022.9 1013.3
12 24.05 СВ 7-12
{12}
20 км 5/5 450 м
[Cu Sc]
+20.9 +14.8 68 +24 +26 комфорт 1023.7 1014.0
15 24.05 С 7
{11}
20 км 9/9 450 м
[Cu Sc]
+20.2 +15.8 76 +22 +23 комфорт 1022.8 1013.1
18 24.05 С 5-9
{9}
15 км 9/9 420 м
[Cu Sc]
+19.7 +16.0 79 +22 +22 комфорт 1022.3 1012.6 +22.0
21 24.05 С 7
{11}
15 км 9/9 450 м
[Cu Sc]
+19.1 +14.9 77 +20 +20 1022.7 1013.0
00 25.05 С 12-17
{23}
15 км 9/9 360 м
[Cu Sc]
+17.6 +16.4 93 +16 +16 1022.8 1013.1
03 25.05 С 8-12
{13}
15 км {морось} 9/9 360 м
[Cu Sc]
+17.9 +14.6 81 +17 +17 1021.2 1011.4
06 25.05 С 12
{19}
15 км {морось} 9/9 450 м
[Cu Sc]
+17.8 +13.6 76 +16 +16 1020.4 1010.7 +17.1 0.1
09 25.05 С 10 15 км 5/5 450 м
[Cu Sc]
+19.8 +14.6 72 +21 +21 комфорт 1021.4 1011.7
12 25.05 С 16
{25}
20 км 6/6 450 м
[Cu Sc]
+21.0 +15.2 69 +23 +23 комфорт 1021.7 1012.0
15 25.05 С 9 20 км 6/6 450 м
[Cu Sc]
+20.9 +15.2 70 +24 +24 комфорт 1020.4 1010.8
18 25.05 С 8
{13}
20 км 6/6 450 м
[Cu Sc]
+19.4 +15.4 78 +20 +21 1020.2 1010.5 +22.2
21 25.05 С 9 15 км 8/8 420 м
[Cu Sc]
+18.4 +14.5 78 +18 +18 1020.8 1011.1
00 26.05 С 8-12
{12}
н/о н/о +18.2 +15.6 85 +18 +18 1021.3 1011.6
03 26.05 С 8 10 км 8/8 400 м
[Cu Sc]
+17.7 +14.7 83 +17 +17 1019.7 1010.0
06 26.05 С 8 н/о н/о +17.9 +15.4 85 +17 +17 1019.8 1010.0 +17.6
09 26.05 С 8-13
{13}
15 км 5/5 420 м
[Cu Sc]
+20.1 +15.1 73 +22 +23 комфорт 1020.1 1010.5
12 26.05 С 10 15 км 5/4 420 м
[Cu Sc Ci sp]
+21.5 +15.6 69 +25 +25 комфорт 1020.2 1010.6
15 26.05 С 7
{11}
15 км 6/5 420 м
[Cu hum Ci sp]
+21.5 +16.1 71 +25 +27 комфорт 1020.0 1010.4
18 26.05 С 17 10 км 8/6 330 м
[Cu Sc Ci sp]
+19.4 +16.0 81 +20 +20 1019.4 1009.8 +22.5
21 26.05 С 10
{15}
10 км 8/8 300 м
[Cu Sc Ci sp]
+18.1 +15.5 85 +17 +17 1019.7 1010.0
00 27.05 С 10
{15}
10 км 6/6 330 м
[Cu Sc Ci sp]
+17.8 +15.9 89 +17 +17 1019.6 1009.9
03 27.05 С 10
{15}
н/о н/о +17.5 +15.5 88 +16 +16 1018.2 1008.5
06 27.05 С 9
{14}
15 км 5/5 330 м
[Cu Sc]
+17.9 +16.3 90 +17 +17 1018.5 1008.8 +17.4

 

Местоположение метеостанции Порту-Санту (Португалия): широта 33.07 долгота -16.35 высота над уровнем моря 82 м.

В архиве по умолчанию представлена погода на Порту-Санту за последнюю неделю. Архивные данные за месяц целиком и за предыдущие месяцы, начиная с января 2011 года, Вы можете получить, выбрав интересующий диапазон дат из раскрывающегося списка и нажав кнопку "Ввод!".


*Определитесь, кто Вы:
робот инопланетянин человек

Внимание! Время в таблицах - всемирное. Для получения местного времени необходимо прибавить поправку, которая равна 0 ч.

Смотрите также архив погоды в соседних городах и на ближайших метеорологических станциях:

Погода в Санта-Катарине (Португалия) (58 км)
Погода в Фуншале (Португалия) (71 км)
Погода на Тенерифе (Канарские Острова) (512 км)
Погода на Пальме (Канарские Острова) (513 км)
Погода в Санта-Круз-де-Тенерифе (Канарские Острова) (514 км)
Погода в Пуэрто-де-ла-Крус (Канарские Острова) (518 км)
Погода в Тасакорте (Канарские Острова) (519 км)
Погода в Аэропорту Лансароте (Канарские Острова) (528 км)
Погода в Тенерифе-Гуимаре (Канарские Острова) (528 км)
Погода в Обсерватории Izana (Канарские Острова) (531 км)

Пояснения к столбцам:

Ветер - указаны скорость ветра в м/с - средняя за 10 мин, порывы в срок и между сроками (в фигурных скобках) и направление, откуда дует ветер: С - северный, СВ - северо-восточный, В - восточный, ЮВ - юго-восточный, Ю - южный, ЮЗ - юго-западный, З - западный, СЗ - северо-западный.
Видимость - горизонтальная дальность видимости в метрах или километрах. При видимости от 1 до 10 км при отсутствии осадков обычно наблюдается дымка, при ухудшении видимости до 1 км и менее - туман. В сухую погоду видимость может ухудшаться дымом, пылью или мглою.
Явления - указаны атмосферные явления, наблюдавшиеся в срок или в последний час перед сроком; фигурными скобками обозначены явления, наблюдавшиеся между сроками (за 1-3 часа до срока); квадратными скобками обозначены град или гололедные отложения с указанием их диаметра в мм.
Облачность - указаны через наклонную черту общая и нижняя облачность в баллах и высота нижней границы облаков в метрах; квадратными скобками обозначены формы облаков: Ci - перистые, Cs - перисто-слоистые, Cc - перисто-кучевые, Ac - высококучевые, As - высокослоистые, Sc - слоисто-кучевые, Ns - слоисто-дождевые, Cu - кучевые, Cb - кучево-дождевые. Подробнее классификацию облаков см. в Атласе облаков (PDF).
T - Температура воздуха - температура, измеренная на высоте 2 м над землей.
Td - Температура точки росы - температура, при понижении до которой содержащийся в воздухе водяной пар достигнет насыщения.
f - Относительная влажность воздуха - влажноcть воздуха, измеренная на высоте 2 м над землей.
Te - Эффективная температура - температура, которую ощущает одетый по сезону человек в тени. Характеристика душности погоды. При расчете учитывается влияние влажности воздуха и скорости ветра на теплоощущения человека.
Tes - Эффективная температура на солнце - температура, которую ощущает человек, с поправкой на солнечный нагрев. Характеристика знойности погоды. Зависит от высоты солнца над горизонтом, облачности и скорости ветра. Ночью, в пасмурную погоду, а также при ветре 12 м/с и более поправка равна нулю.
P - Атмосферное давление - приведенное к уровню моря атмосферное давление.
Po - Атмосферное давление - измеренное на уровне метеостанции атмосферное давление.
Tmin - Минимальная температура - минимум температуры воздуха на высоте 2 м над землей.
Tmax - Максимальная температура - максимум температуры воздуха на высоте 2 м над землей.
R - Количество осадков - Количество выпавших осадков за период времени, мм. При наведении курсора мыши на число - период времени, за который выпало указанное количество осадков.
R24 - Количество осадков - Количество выпавших осадков за 24 часа, мм.
S - Снежный покров - Высота снежного покрова, см. При наведении курсора мыши на число - состояние снежного покрова и степень покрытия местности в баллах.